Location: Forcarei
(42.5879°N, 8.3520°W)
Time: 05:45:44
(UTC+02:00)

ISS - Visible Passes

Search period start: 23 April 2018 00:00
Search period end: 03 May 2018 00:00
Orbit: 403 x 406 km, 51.6° (Epoch: 23 April)

Date Brightness Start Highest point End Pass type
(mag) Time Alt. Az. Time Alt. Az. Time Alt. Az.
29 Apr -0.9 07:02:14 10° SE 07:02:59 11° SE 07:03:44 10° ESE visible
01 May -1.9 06:51:50 10° SSW 06:54:32 24° SE 06:57:15 10° E visible
02 May -1.2 06:00:46 10° SSE 06:02:25 13° SE 06:04:05 10° E visible
